World > North America > United States > Florida   City of West Palm Beach, FL

Hourly West Palm Beach, FL Regional Weather

Feedback E-mail the Weather

Latest News

West Palm Beach, FL Weather Maps

°F °C°F °C
West Palm Beach Weather Map
UTC Time: 5/26/2022, 08:32
Your Time:

West Palm Beach, FL Regional Weather

Expires:202205260900;;599865
ASUS42 KTBW 260816
RWRFL 
FLORIDA REGIONAL WEATHER ROUNDUP
NATIONAL WEATHER SERVICE TAMPA BAY RUSKIN FL
400 AM EDT THU MAY 26 2022

NOTE: "FAIR" INDICATES FEW OR NO CLOUDS BELOW 12,000 FEET WITH NO
SIGNIFICANT WEATHER AND/OR OBSTRUCTIONS TO VISIBILITY.


FLZ067-068-071>074-168-172>174-260900-
SOUTHEAST FLORIDA 
  
CITY           SKY/WX    TMP DP  RH WIND       PRES   REMARKS
W PALM BEACH   PTCLDY    79  68  69 SE12      30.10R                  
FT LAUDER-EXEC CLEAR     79  69  71 E12       30.08S                  
FT LAUDERDALE  PTCLDY    79  72  79 E13       30.07S                  
POMPANO BEACH  CLEAR     80  69  69 E12       30.08S                  
PEMBROKE PINES PTCLDY    79  69  71 SE8       30.09S                  
OPA LOCKA      CLEAR     78  68  71 SE8       30.08F                  
MIAMI          MOCLDY    80  71  74 E12       30.08S                  
WEST KENDALL   LGT RAIN  79  72  79 SE7       30.07S                  
HOMESTEAD      MOCLDY    79  70  73 E6        30.05F                  

STATION/POSITION SKY/WX   TEMP    WIND        PRES    WAVE   SWELL
                          AIR SEA DIR/SP/G            HT/PER HT/PER
                          (F)     (DEG/KT/KT) (MB)    (FT/S) (FT/S)
VIRGINIA KEY               81 83   90/ 10/ 14 1019.0S
LAKE WORTH                 80 81  120/ 14/ 15 1018.2F
FOWEY ROCKS                80 81  100/ 17/ 19 1018.5F
SETTLEMENT POINT           78     120/ 13/ 15 1019.1F

$$

  

SKY/WX - Weather  TMP - Temperature  DP - Dew Point  RH - Humidity
WIND - Wind Direction/Speed PRES - Barometric Pressure VSB - Visibility
WCI - Wind Chill Index E13G22 Wind - East Wind 13 mph/Gusts of 22 mph

Trending Headlines

West Palm Beach Radar Loop



West Palm Beach Quick Facts


National Two Day Weather Forecast


E-mail the West Palm Beach Weather Forecast

Voice your opinion or tell us about page issues...